Flag Weather past 2 weeks in Schwäbisch Gmünd, Baden-Württemberg, Germany

Now
39 °F

Overcast.


Feels Like: 35 °F
Forecast: 35 / 48 °F
Wind: 6 mph from Southeast

Location: Stoetten

Current Time: Nov 24, 2014 at 2:46:46 AM

Latest Report: Nov 24, 2014 at 2:00 AM


Visibility: 7 mi

Pressure: 30.19 "Hg

Humidity: 94%

Dew point: 38 °F

Location of Schwäbisch GmündLocation

Historic Weather in Schwäbisch Gmünd — Graph

°F

Schwäbisch Gmünd temperature yesterday

Maximum temperature yesterday: 40 °F (at 1:00 AM)
Minimum temperature yesterday: 34 °F (at 8:00 AM)
Average temperature yesterday: 37 °F

Past Weeks' High & Low Weather Summary

 TemperatureHumidityPressure
High53 °F (Nov 12, 3:00 AM)100% (Nov 9, 1:00 AM)30.35 "Hg (Nov 9, 1:00 AM)
Low34 °F (Nov 23, 8:00 AM)62% (Nov 12, 3:00 AM)29.50 "Hg (Nov 16, 12:00 AM)
Average40 °F98%29.93 "Hg
* Reported Nov 9 1:00 AM — Nov 24 1:00 AM, Schwäbisch Gmünd, Weather by CustomWeather, © 2014

Note: Actual official high and low records may vary slightly from our data, if they occured in-between our weather recording intervals... More about our weather records

Advertising

Schwäbisch Gmünd weather history for previous 24 hours

 ConditionsComfort  
Time TempWeatherWind HumidityBarometerVisibility
1:00 AM
Nov 24
40 °FOvercast.6 mph94%30.20 "Hg13 mi
12:00 AM38 °FFog.6 mph99%30.22 "Hg2 mi
11:00 PM
Nov 23
38 °FOvercast.6 mph100%30.22 "Hg2 mi
10:00 PM37 °FPassing clouds.7 mph100%30.22 "Hg1 mi
9:00 PM36 °FFog.6 mph100%30.22 "Hg1 mi
8:00 PM36 °FFog.6 mph100%30.22 "Hg1 mi
7:00 PM36 °FFog.5 mph100%30.22 "Hg0 mi
6:00 PM36 °FFog.6 mph100%30.22 "Hg0 mi
5:00 PM36 °FFog.5 mph100%30.22 "Hg0 mi
4:00 PM38 °FFog.6 mph100%30.22 "Hg0 mi
3:00 PM38 °FFog.6 mph100%30.22 "Hg0 mi
2:00 PM39 °FFog.6 mph100%30.22 "Hg0 mi
1:00 PM39 °FFog.5 mph100%30.24 "Hg0 mi
12:00 PM39 °FFog.5 mph100%30.25 "Hg0 mi
11:00 AM38 °FFog.5 mph100%30.27 "Hg0 mi
10:00 AM36 °FFog.5 mph100%30.27 "Hg1 mi
9:00 AM36 °FFog.5 mph100%30.27 "Hg2 mi
8:00 AM34 °FFog.5 mph100%30.27 "Hg0 mi
7:00 AM34 °FFog.5 mph100%30.26 "Hg0 mi
6:00 AM37 °FFog.5 mph100%30.23 "Hg0 mi
5:00 AM36 °FLow clouds.6 mph100%30.24 "Hg0 mi
4:00 AM39 °FClear.6 mph92%30.22 "Hg8 mi
3:00 AM40 °FClear.6 mph97%30.23 "Hg3 mi
2:00 AM40 °FFog.6 mph95%30.23 "Hg4 mi
Weather by CustomWeather, © 2014

See weather overviewHow to use our weather pages